date,time,press
2022-12-01,00:00,1022.5
2022-12-01,01:00,1014.7
2022-12-01,02:00,1011.6
2022-12-01,03:00,1009
2022-12-01,04:00,1009.4
2022-12-01,05:00,1009.1
2022-12-01,06:00,1008.5
2022-12-01,07:00,1010.5
2022-12-01,08:00,1009.5
2022-12-01,09:00,1006.8
2022-12-01,10:00,995.3
2022-12-01,11:00,993.6
2022-12-01,12:00,985
2022-12-01,13:00,983.3
2022-12-01,14:00,988.2
2022-12-01,15:00,991.5
2022-12-01,16:00,995.6
2022-12-01,17:00,1003
2022-12-01,18:00,1036
2022-12-01,19:00,1022.6
2022-12-01,20:00,1008.5
2022-12-01,21:00,1008.7
2022-12-01,22:00,1009
2022-12-01,23:00,1009
2022-12-02,00:00,1008.3
2022-12-02,01:00,1007.7
2022-12-02,02:00,1007.3
2022-12-02,03:00,1006.5
2022-12-02,04:00,1006.1
2022-12-02,05:00,1006.5
2022-12-02,06:00,1006.1
2022-12-02,07:00,1008
2022-12-02,08:00,999.7
2022-12-02,09:00,996.7
2022-12-02,10:00,984
2022-12-02,11:00,984.5
2022-12-02,12:00,977.2
2022-12-02,13:00,977.8
2022-12-02,14:00,977.6
2022-12-02,15:00,982.3
2022-12-02,16:00,983.7
2022-12-02,17:00,994
2022-12-02,18:00,1007.5
2022-12-02,19:00,1020
2022-12-02,20:00,1021.5
2022-12-02,21:00,1020
2022-12-02,22:00,1018.3
2022-12-02,23:00,1019.4
2022-12-03,00:00,1010.9
2022-12-03,01:00,1012.4
2022-12-03,02:00,1004.1
2022-12-03,03:00,1007.9
2022-12-03,04:00,1007.2
2022-12-03,05:00,1010.2
2022-12-03,06:00,1008.5
2022-12-03,07:00,1005.2
2022-12-03,08:00,998.5
2022-12-03,09:00,981.1
2022-12-03,10:00,965.5
2022-12-03,11:00,963.7
2022-12-03,12:00,959.7
2022-12-03,13:00,960.3
2022-12-03,14:00,964.2
2022-12-03,15:00,964.4
2022-12-03,16:00,964.8
2022-12-03,17:00,970.1
2022-12-03,18:00,989.9
2022-12-03,19:00,1006.2
2022-12-03,20:00,1012.6
2022-12-03,21:00,1017.9
2022-12-03,22:00,1017.5
2022-12-03,23:00,1013.1
2022-12-04,00:00,1000.4
2022-12-04,01:00,1007.8
2022-12-04,02:00,1009.6
2022-12-04,03:00,1004.1
2022-12-04,04:00,1015.4
2022-12-04,05:00,1021
2022-12-04,06:00,1018.8
2022-12-04,07:00,1011
2022-12-04,08:00,997.3
2022-12-04,09:00,991.7
2022-12-04,10:00,981
2022-12-04,11:00,974.8
2022-12-04,12:00,971.1
2022-12-04,13:00,971.3
2022-12-04,14:00,970.2
2022-12-04,15:00,972
2022-12-04,16:00,971.1
2022-12-04,17:00,979.2
2022-12-04,18:00,997.7
2022-12-04,19:00,1010.4
2022-12-04,20:00,1019.7
2022-12-04,21:00,1014.5
2022-12-04,22:00,1009.9
2022-12-04,23:00,1010.7
2022-12-05,00:00,1024.5
2022-12-05,01:00,1025.7
2022-12-05,02:00,1022.4
2022-12-05,03:00,1016
2022-12-05,04:00,1004.5
2022-12-05,05:00,1010.6
2022-12-05,06:00,1013.2
2022-12-05,07:00,1009.1
2022-12-05,08:00,1002.1
2022-12-05,09:00,995.9
2022-12-05,10:00,988.3
2022-12-05,11:00,980
2022-12-05,12:00,975.6
2022-12-05,13:00,976.2
2022-12-05,14:00,973.9
2022-12-05,15:00,979.5
2022-12-05,16:00,981.3
2022-12-05,17:00,984.5
2022-12-05,18:00,995.3
2022-12-05,19:00,1009.7
2022-12-05,20:00,1020.8
2022-12-05,21:00,1017.1
2022-12-05,22:00,1021
2022-12-05,23:00,1024.3
2022-12-06,00:00,1025.6
2022-12-06,01:00,1011.1
2022-12-06,02:00,1016.4
2022-12-06,03:00,1014.9
2022-12-06,04:00,1004.6
2022-12-06,05:00,1005.5
2022-12-06,06:00,996.6
2022-12-06,07:00,1007
2022-12-06,08:00,997.8
2022-12-06,09:00,986.5
2022-12-06,10:00,975.1
2022-12-06,11:00,971
2022-12-06,12:00,964.1
2022-12-06,13:00,961.9
2022-12-06,14:00,961.7
2022-12-06,15:00,961.5
2022-12-06,16:00,963.5
2022-12-06,17:00,967.9
2022-12-06,18:00,979.4
2022-12-06,19:00,992.8
2022-12-06,20:00,1002.6
2022-12-06,21:00,1012.5
2022-12-06,22:00,1014.1
2022-12-06,23:00,1025.3
2022-12-07,00:00,1003.9
2022-12-07,01:00,997.3
2022-12-07,02:00,996.3
2022-12-07,03:00,999.3
2022-12-07,04:00,999.5
2022-12-07,05:00,1009.8
2022-12-07,06:00,1019
2022-12-07,07:00,1017.4
2022-12-07,08:00,1016.6
2022-12-07,09:00,1005
2022-12-07,10:00,996.1
2022-12-07,11:00,980.5
2022-12-07,12:00,975.1
2022-12-07,13:00,973.1
2022-12-07,14:00,970.8
2022-12-07,15:00,969.2
2022-12-07,16:00,969.7
2022-12-07,17:00,971.4
2022-12-07,18:00,987.4
2022-12-07,19:00,1006.7
2022-12-07,20:00,1007.6
2022-12-07,21:00,1006.7
2022-12-07,22:00,1004.9
2022-12-07,23:00,1005.5
2022-12-08,00:00,1005
2022-12-08,01:00,1014.2
2022-12-08,02:00,1023.9
2022-12-08,03:00,1028.5
2022-12-08,04:00,1031.8
2022-12-08,05:00,1026.9
2022-12-08,06:00,1018.7
2022-12-08,07:00,1016.5
2022-12-08,08:00,1011.2
2022-12-08,09:00,999.5
2022-12-08,10:00,983.4
2022-12-08,11:00,975
2022-12-08,12:00,970.5
2022-12-08,13:00,969
2022-12-08,14:00,966.7
2022-12-08,15:00,967.2
2022-12-08,16:00,968.4
2022-12-08,17:00,970.5
2022-12-08,18:00,988.5
2022-12-08,19:00,1009.5
2022-12-08,20:00,1018.5
2022-12-08,21:00,1017.7
2022-12-08,22:00,1012.1
2022-12-08,23:00,1014.2
2022-12-09,00:00,1020.7
2022-12-09,01:00,1025.6
2022-12-09,02:00,1025.4
2022-12-09,03:00,1025.1
2022-12-09,04:00,1027
2022-12-09,05:00,1025.6
2022-12-09,06:00,1027.9
2022-12-09,07:00,1028.1
2022-12-09,08:00,1010.7
2022-12-09,09:00,995.9
2022-12-09,10:00,989.7
2022-12-09,11:00,987
2022-12-09,12:00,973.4
2022-12-09,13:00,972.3
2022-12-09,14:00,971.2
2022-12-09,15:00,966.4
2022-12-09,16:00,967
2022-12-09,17:00,970.5
2022-12-09,18:00,993.6
2022-12-09,19:00,1010.3
2022-12-09,20:00,1022.2
2022-12-09,21:00,1029.4
2022-12-09,22:00,1029
2022-12-09,23:00,1028.3
2022-12-10,00:00,1025
2022-12-10,01:00,1024.5
2022-12-10,02:00,1021
2022-12-10,03:00,1019.6
2022-12-10,04:00,1017.2
2022-12-10,05:00,1013.8
2022-12-10,06:00,1014.9
2022-12-10,07:00,1016.6
2022-12-10,08:00,1010.6
2022-12-10,09:00,1002
2022-12-10,10:00,975.8
2022-12-10,11:00,971.2
2022-12-10,12:00,971.5
2022-12-10,13:00,963.5
2022-12-10,14:00,965.3
2022-12-10,15:00,964.2
2022-12-10,16:00,963.1
2022-12-10,17:00,969.7
2022-12-10,18:00,992.6
2022-12-10,19:00,1010.1
2022-12-10,20:00,1028.6
2022-12-10,21:00,1030.1
2022-12-10,22:00,1026.1
2022-12-10,23:00,1021
2022-12-11,00:00,1016.6
2022-12-11,01:00,1013
2022-12-11,02:00,1011.3
2022-12-11,03:00,1009.5
2022-12-11,04:00,1010.1
2022-12-11,05:00,1010.8
2022-12-11,06:00,1010.7
2022-12-11,07:00,1011.4
2022-12-11,08:00,1009.9
2022-12-11,09:00,996.8
2022-12-11,10:00,970.2
2022-12-11,11:00,964.6
2022-12-11,12:00,959.4
2022-12-11,13:00,958.3
2022-12-11,14:00,956.1
2022-12-11,15:00,959.2
2022-12-11,16:00,961.7
2022-12-11,17:00,972.7
2022-12-11,18:00,994.5
2022-12-11,19:00,1014.9
2022-12-11,20:00,1025.9
2022-12-11,21:00,1021.6
2022-12-11,22:00,1032.2
2022-12-11,23:00,1026.5
2022-12-12,00:00,1019.7
2022-12-12,01:00,1011.5
2022-12-12,02:00,1011
2022-12-12,03:00,1020.2
2022-12-12,04:00,1021.2
2022-12-12,05:00,1017.7
2022-12-12,06:00,1013.8
2022-12-12,07:00,1016
2022-12-12,08:00,1003.9
2022-12-12,09:00,986.3
2022-12-12,10:00,966.3
2022-12-12,11:00,960.6
2022-12-12,12:00,957.2
2022-12-12,13:00,961.5
2022-12-12,14:00,960
2022-12-12,15:00,961.1
2022-12-12,16:00,966.1
2022-12-12,17:00,968.2
2022-12-12,18:00,978.1
2022-12-12,19:00,987.5
2022-12-12,20:00,1003.3
2022-12-12,21:00,993.7
2022-12-12,22:00,997.2
2022-12-12,23:00,998.9
2022-12-13,00:00,998.5
2022-12-13,01:00,1000.2
2022-12-13,02:00,999.9
2022-12-13,03:00,1000.7
2022-12-13,04:00,999.6
2022-12-13,05:00,997.7
2022-12-13,06:00,997.2
2022-12-13,07:00,995.2
2022-12-13,08:00,993.5
2022-12-13,09:00,991.9
2022-12-13,10:00,987.3
2022-12-13,11:00,988.9
2022-12-13,12:00,981.2
2022-12-13,13:00,970.7
2022-12-13,14:00,966.7
2022-12-13,15:00,962.7
2022-12-13,16:00,964.5
2022-12-13,17:00,974.8
2022-12-13,18:00,985.9
2022-12-13,19:00,998.1
2022-12-13,20:00,1002.9
2022-12-13,21:00,1008.8
2022-12-13,22:00,1014.4
2022-12-13,23:00,1013.6
2022-12-14,00:00,1014.1
2022-12-14,01:00,1019.2
2022-12-14,02:00,1024.2
2022-12-14,03:00,1027.1
2022-12-14,04:00,1029.8
2022-12-14,05:00,1032.1
2022-12-14,06:00,1035.2
2022-12-14,07:00,1034.3
2022-12-14,08:00,1020.3
2022-12-14,09:00,1002.7
2022-12-14,10:00,985
2022-12-14,11:00,973.6
2022-12-14,12:00,964.8
2022-12-14,13:00,956.2
2022-12-14,14:00,952.1
2022-12-14,15:00,945.9
2022-12-14,16:00,943.2
2022-12-14,17:00,943.3
2022-12-14,18:00,955.5
2022-12-14,19:00,980.1
2022-12-14,20:00,982.5
2022-12-14,21:00,983.3
2022-12-14,22:00,994.8
2022-12-14,23:00,1001.8
2022-12-15,00:00,1002.7
2022-12-15,01:00,1009.1
2022-12-15,02:00,1011.8
2022-12-15,03:00,1015.4
2022-12-15,04:00,1014.9
2022-12-15,05:00,1015.8
2022-12-15,06:00,1016.8
2022-12-15,07:00,1016.1
2022-12-15,08:00,1007.2
2022-12-15,09:00,1001.6
2022-12-15,10:00,987.7
2022-12-15,11:00,975.6
2022-12-15,12:00,972.1
2022-12-15,13:00,967.1
2022-12-15,14:00,963.2
2022-12-15,15:00,962.1
2022-12-15,16:00,959.9
2022-12-15,17:00,962.2
2022-12-15,18:00,978.5
2022-12-15,19:00,995.3
2022-12-15,20:00,1004
2022-12-15,21:00,1011
2022-12-15,22:00,1012.6
2022-12-15,23:00,1018.6
2022-12-16,00:00,1024.9
2022-12-16,01:00,1024.5
2022-12-16,02:00,1024.1
2022-12-16,03:00,1024.6
2022-12-16,04:00,1028.1
2022-12-16,05:00,1028.4
2022-12-16,06:00,1031.5
2022-12-16,07:00,1035.1
2022-12-16,08:00,1035.2
2022-12-16,09:00,1017.1
2022-12-16,10:00,987.5
2022-12-16,11:00,974.6
2022-12-16,12:00,969.2
2022-12-16,13:00,965.8
2022-12-16,14:00,960.7
2022-12-16,15:00,957.9
2022-12-16,16:00,957.9
2022-12-16,17:00,960.4
2022-12-16,18:00,975.1
2022-12-16,19:00,998.8
2022-12-16,20:00,1004.9
2022-12-16,21:00,1008.4
2022-12-16,22:00,1011.9
2022-12-16,23:00,1018.5
2022-12-17,00:00,1020.6
2022-12-17,01:00,1027.3
2022-12-17,02:00,1029.9
2022-12-17,03:00,1032.8
2022-12-17,04:00,1032.9
2022-12-17,05:00,1034.6
2022-12-17,06:00,1035.5
2022-12-17,07:00,1035.8
2022-12-17,08:00,1028.2
2022-12-17,09:00,1005.1
2022-12-17,10:00,993.5
2022-12-17,11:00,985.2
2022-12-17,12:00,980.6
2022-12-17,13:00,978.2
2022-12-17,14:00,973.4
2022-12-17,15:00,969.4
2022-12-17,16:00,971
2022-12-17,17:00,974
2022-12-17,18:00,977.7
2022-12-17,19:00,983.3
2022-12-17,20:00,983.4
2022-12-17,21:00,983.1
2022-12-17,22:00,982.2
2022-12-17,23:00,983.9
2022-12-18,00:00,984.8
2022-12-18,01:00,976.1
2022-12-18,02:00,975.7
2022-12-18,03:00,973.7
2022-12-18,04:00,972.2
2022-12-18,05:00,968.1
2022-12-18,06:00,967.3
2022-12-18,07:00,967.1
2022-12-18,08:00,968.1
2022-12-18,09:00,965
2022-12-18,10:00,962.9
2022-12-18,11:00,956.2
2022-12-18,12:00,955
2022-12-18,13:00,951.3
2022-12-18,14:00,947.4
2022-12-18,15:00,946.3
2022-12-18,16:00,944.8
2022-12-18,17:00,946.6
2022-12-18,18:00,952.3
2022-12-18,19:00,956.1
2022-12-18,20:00,957
2022-12-18,21:00,957.2
2022-12-18,22:00,959
2022-12-18,23:00,963.1
2022-12-19,00:00,954.2
2022-12-19,01:00,951.9
2022-12-19,02:00,954
2022-12-19,03:00,959.5
2022-12-19,04:00,963.4
2022-12-19,05:00,963.3
2022-12-19,06:00,963
2022-12-19,07:00,965.5
2022-12-19,08:00,965.2
2022-12-19,09:00,961.5
2022-12-19,10:00,960.7
2022-12-19,11:00,959.7
2022-12-19,12:00,954.4
2022-12-19,13:00,952
2022-12-19,14:00,951
2022-12-19,15:00,950.2
2022-12-19,16:00,950.6
2022-12-19,17:00,952.5
2022-12-19,18:00,960.6
2022-12-19,19:00,971.6
2022-12-19,20:00,983.1
2022-12-19,21:00,982.4
2022-12-19,22:00,986.6
2022-12-19,23:00,991
2022-12-20,00:00,987.3
2022-12-20,01:00,994.4
2022-12-20,02:00,997.4
2022-12-20,03:00,995.2
2022-12-20,04:00,990.3
2022-12-20,05:00,992.4
2022-12-20,06:00,997.4
2022-12-20,07:00,993.9
2022-12-20,08:00,984.7
2022-12-20,09:00,982.2
2022-12-20,10:00,976.5
2022-12-20,11:00,973
2022-12-20,12:00,966.3
2022-12-20,13:00,963.1
2022-12-20,14:00,959.9
2022-12-20,15:00,958.8
2022-12-20,16:00,958.9
2022-12-20,17:00,962.7
2022-12-20,18:00,973.2
2022-12-20,19:00,986.1
2022-12-20,20:00,992.9
2022-12-20,21:00,996
2022-12-20,22:00,1001.7
2022-12-20,23:00,1006.4
2022-12-21,00:00,1009.7
2022-12-21,01:00,1008.4
2022-12-21,02:00,1010.3
2022-12-21,03:00,1014.5
2022-12-21,04:00,1018.8
2022-12-21,05:00,1022.5
2022-12-21,06:00,1027.7
2022-12-21,07:00,1030.9
2022-12-21,08:00,1034.8
2022-12-21,09:00,1024.5
2022-12-21,10:00,987.8
2022-12-21,11:00,978.4
2022-12-21,12:00,972.9
2022-12-21,13:00,972.7
2022-12-21,14:00,967.8
2022-12-21,15:00,966
2022-12-21,16:00,966.6
2022-12-21,17:00,968.7
2022-12-21,18:00,980.6
2022-12-21,19:00,996.4
2022-12-21,20:00,1005.6
2022-12-21,21:00,1011.7
2022-12-21,22:00,1017
2022-12-21,23:00,1017.7
2022-12-22,00:00,1018.8
2022-12-22,01:00,1023.4
2022-12-22,02:00,1024.3
2022-12-22,03:00,1022.8
2022-12-22,04:00,1025.1
2022-12-22,05:00,1027.5
2022-12-22,06:00,1032.2
2022-12-22,07:00,1036.1
2022-12-22,08:00,1033.5
2022-12-22,09:00,1013.3
2022-12-22,10:00,996.1
2022-12-22,11:00,984.3
2022-12-22,12:00,976
2022-12-22,13:00,971.8
2022-12-22,14:00,967.1
2022-12-22,15:00,961.1
2022-12-22,16:00,964.8
2022-12-22,17:00,971.6
2022-12-22,18:00,984.2
2022-12-22,19:00,1006.6
2022-12-22,20:00,1022
2022-12-22,21:00,1031.3
2022-12-22,22:00,1034.3
2022-12-22,23:00,1037.8
2022-12-23,00:00,1040.8
2022-12-23,01:00,1040.2
2022-12-23,02:00,1039.7
2022-12-23,03:00,1036.7
2022-12-23,04:00,1037.2
2022-12-23,05:00,1039.7
2022-12-23,06:00,1038.8
2022-12-23,07:00,1040.9
2022-12-23,08:00,1043.9
2022-12-23,09:00,1016
2022-12-23,10:00,990.1
2022-12-23,11:00,974.8
2022-12-23,12:00,968.2
2022-12-23,13:00,965.5
2022-12-23,14:00,962.9
2022-12-23,15:00,963.8
2022-12-23,16:00,963.1
2022-12-23,17:00,963.9
2022-12-23,18:00,978.6
2022-12-23,19:00,996.8
2022-12-23,20:00,1017.2
2022-12-23,21:00,1024.8
2022-12-23,22:00,1033.8
2022-12-23,23:00,1032.7
2022-12-24,00:00,1035
2022-12-24,01:00,1036.1
2022-12-24,02:00,1035
2022-12-24,03:00,1036.1
2022-12-24,04:00,1037.2
2022-12-24,05:00,1036.1
2022-12-24,06:00,1023.8
2022-12-24,07:00,1010
2022-12-24,08:00,1006.6
2022-12-24,09:00,993.1
2022-12-24,10:00,976.4
2022-12-24,11:00,967.9
2022-12-24,12:00,961
2022-12-24,13:00,957.1
2022-12-24,14:00,955.4
2022-12-24,15:00,954.3
2022-12-24,16:00,952.7
2022-12-24,17:00,954.8
2022-12-24,18:00,968.4
2022-12-24,19:00,993.2
2022-12-24,20:00,1010
2022-12-24,21:00,1013.2
2022-12-24,22:00,1017.9
2022-12-24,23:00,1015.2
2022-12-25,00:00,1017.1
2022-12-25,01:00,1025.6
2022-12-25,02:00,1033.2
2022-12-25,03:00,1036.3
2022-12-25,04:00,1019.2
2022-12-25,05:00,1012.2
2022-12-25,06:00,1014.5
2022-12-25,07:00,1016.2
2022-12-25,08:00,1011.4
2022-12-25,09:00,1000.7
2022-12-25,10:00,988.1
2022-12-25,11:00,977.8
2022-12-25,12:00,972.6
2022-12-25,13:00,967.6
2022-12-25,14:00,962.4
2022-12-25,15:00,959.4
2022-12-25,16:00,958.7
2022-12-25,17:00,959.8
2022-12-25,18:00,971.5
2022-12-25,19:00,991.2
2022-12-25,20:00,1009.1
2022-12-25,21:00,1023.3
2022-12-25,22:00,1025.3
2022-12-25,23:00,1027.4
2022-12-26,00:00,1031.8
2022-12-26,01:00,1034.6
2022-12-26,02:00,1035.4
2022-12-26,03:00,1032.2
2022-12-26,04:00,1033.8
2022-12-26,05:00,1036.8
2022-12-26,06:00,1037.8
2022-12-26,07:00,1039.2
2022-12-26,08:00,1031.2
2022-12-26,09:00,1006.7
2022-12-26,10:00,988.9
2022-12-26,11:00,975.5
2022-12-26,12:00,966.7
2022-12-26,13:00,959.7
2022-12-26,14:00,955
2022-12-26,15:00,952.8
2022-12-26,16:00,950.9
2022-12-26,17:00,960.1
2022-12-26,18:00,973.6
2022-12-26,19:00,998
2022-12-26,20:00,1007.8
2022-12-26,21:00,1018.2
2022-12-26,22:00,1021.1
2022-12-26,23:00,1024.3
2022-12-27,00:00,1032.9
2022-12-27,01:00,1032.7
2022-12-27,02:00,1037.5
2022-12-27,03:00,1034.5
2022-12-27,04:00,1033.6
2022-12-27,05:00,1034.6
2022-12-27,06:00,1038.2
2022-12-27,07:00,1039.4
2022-12-27,08:00,1038.1
2022-12-27,09:00,1012.3
2022-12-27,10:00,986.7
2022-12-27,11:00,972
2022-12-27,12:00,966.7
2022-12-27,13:00,962.3
2022-12-27,14:00,960.2
2022-12-27,15:00,956.6
2022-12-27,16:00,955
2022-12-27,17:00,956.5
2022-12-27,18:00,979.2
2022-12-27,19:00,998.5
2022-12-27,20:00,1011.3
2022-12-27,21:00,1024.6
2022-12-27,22:00,1032.4
2022-12-27,23:00,1035.3
2022-12-28,00:00,1034.4
2022-12-28,01:00,1036.2
2022-12-28,02:00,1040
2022-12-28,03:00,1040.2
2022-12-28,04:00,1043.2
2022-12-28,05:00,1042.5
2022-12-28,06:00,1043.2
2022-12-28,07:00,1044.2
2022-12-28,08:00,1043.7
2022-12-28,09:00,1030.5
2022-12-28,10:00,996.5
2022-12-28,11:00,971.7
2022-12-28,12:00,962
2022-12-28,13:00,953.3
2022-12-28,14:00,947.5
2022-12-28,15:00,944.2
2022-12-28,16:00,941.3
2022-12-28,17:00,955.1
2022-12-28,18:00,986.7
2022-12-28,19:00,1006.5
2022-12-28,20:00,1022.8
2022-12-28,21:00,1032
2022-12-28,22:00,1036.3
2022-12-28,23:00,1030.7
2022-12-29,00:00,1036.2
2022-12-29,01:00,1041.6
2022-12-29,02:00,1036.5
2022-12-29,03:00,1031.3
2022-12-29,04:00,1028.1
2022-12-29,05:00,1031.3
2022-12-29,06:00,1034.9
2022-12-29,07:00,1031.2
2022-12-29,08:00,1035.4
2022-12-29,09:00,1002.7
2022-12-29,10:00,981.6
2022-12-29,11:00,973.7
2022-12-29,12:00,968.4
2022-12-29,13:00,960.9
2022-12-29,14:00,956.2
2022-12-29,15:00,951.1
2022-12-29,16:00,948.1
2022-12-29,17:00,952.5
2022-12-29,18:00,976.6
2022-12-29,19:00,998.7
2022-12-29,20:00,1011.4
2022-12-29,21:00,1021.1
2022-12-29,22:00,1020.1
2022-12-29,23:00,1020.5
2022-12-30,00:00,1024.2
2022-12-30,01:00,1023.5
2022-12-30,02:00,1025.7
2022-12-30,03:00,1026.5
2022-12-30,04:00,1029.8
2022-12-30,05:00,1029
2022-12-30,06:00,1030.7
2022-12-30,07:00,1032.2
2022-12-30,08:00,1024.7
2022-12-30,09:00,1005
2022-12-30,10:00,987.3
2022-12-30,11:00,978.3
2022-12-30,12:00,972.8
2022-12-30,13:00,966.8
2022-12-30,14:00,961
2022-12-30,15:00,961.5
2022-12-30,16:00,961.6
2022-12-30,17:00,962.3
2022-12-30,18:00,972
2022-12-30,19:00,997.6
2022-12-30,20:00,1012.3
2022-12-30,21:00,1023.2
2022-12-30,22:00,1030.1
2022-12-30,23:00,1032
2022-12-31,00:00,1030.2
2022-12-31,01:00,1029.5
2022-12-31,02:00,1030.9
2022-12-31,03:00,1033.2
2022-12-31,04:00,1033.1
2022-12-31,05:00,1033.9
2022-12-31,06:00,1028.8
2022-12-31,07:00,1020.3
2022-12-31,08:00,1014.6
2022-12-31,09:00,1008.3
2022-12-31,10:00,997.2
2022-12-31,11:00,983.4
2022-12-31,12:00,975
2022-12-31,13:00,969.7
2022-12-31,14:00,965.3
2022-12-31,15:00,961.7
2022-12-31,16:00,960.7
2022-12-31,17:00,960.6
2022-12-31,18:00,969.2
2022-12-31,19:00,997.7
2022-12-31,20:00,1012.3
2022-12-31,21:00,1019.8
2022-12-31,22:00,1021.8
2022-12-31,23:00,1014.5
